User: anonymous   Login
Location: Asheville, NC
(35.6000°N, 82.5500°W)
Time: 06:41:22
(UTC-04:00)
Language:

RS-15 - Orbit

View from above orbital plane
View from above orbital plane
View from above satellite
View from above satellite

Ground track
Ground track

The orbit data is extracted from the following two-line orbital elements,

1 23439U 94085A   18202.57107024 -.00000041 +00000-0 +54089-4 0  9992
2 23439 064.8181 293.2266 0156307 175.9201 279.8296 11.27567729970442
Epoch (UTC): 21 July 2018 13:42:20
Eccentricity: 0.0156307
inclination: 64.8181°
perigee height: 1891 km
apogee height: 2153 km
right ascension of ascending node: 293.2266°
argument of perigee: 175.9201°
revolutions per day: 11.27567729
mean anomaly at epoch: 279.8296°
orbit number at epoch: 97044

The dashed part of the orbit path shows where the satellite is in the earth's shadow,  

DLR